Date,TemperatureHighF,TemperatureAvgF,TemperatureLowF,DewpointHighF,DewpointAvgF,DewpointLowF,HumidityHigh,HumidityAvg,HumidityLow,PressureMaxIn,PressureMinIn,WindSpeedMaxMPH,WindSpeedAvgMPH,GustSpeedMaxMPH,PrecipitationSumIn
2013-1-1,33,31,30,29,28,26,92,87,78,30.65,30.52,5,1,7,0.00
2013-1-2,33,31,30,27,27,26,88,85,76,30.64,30.50,8,2,10,0.00
2013-1-3,31,26,20,26,22,18,92,85,73,30.51,30.38,6,1,7,0.00
2013-1-4,36,30,22,28,25,19,92,83,67,30.48,30.41,10,1,10,0.00
2013-1-5,33,30,26,30,28,24,96,89,82,30.42,30.24,7,1,7,0.00
2013-1-6,33,30,25,31,28,23,96,94,89,30.26,30.09,7,1,8,0.03
2013-1-7,48,39,31,44,37,30,98,92,84,30.09,29.88,14,3,17,0.34
2013-1-8,52,44,38,44,40,35,96,87,72,30.12,29.86,24,4,24,0.04
2013-1-9,54,46,34,44,39,31,88,77,61,29.86,29.60,19,5,23,0.00
2013-1-10,41,34,30,33,27,20,92,77,53,30.01,29.82,10,2,10,0.00
2013-1-11,39,30,24,31,24,18,92,79,62,30.29,30.00,12,3,13,0.00
2013-1-12,31,24,17,26,20,14,93,85,65,30.42,30.28,13,2,13,0.00
2013-1-13,32,25,17,24,21,15,100,83,62,30.50,30.41,8,1,8,0.00
2013-1-14,36,29,24,28,25,22,92,84,68,30.50,30.34,10,1,11,0.00
2013-1-15,24,23,22,22,21,20,92,91,91,30.56,30.50,7,1,7,0.00
2013-1-19,31,30,29,28,27,26,91,89,87,30.52,30.40,2,0,7,0.00
2013-1-20,31,30,28,27,26,25,92,88,85,30.59,30.49,1,0,7,0.00
2013-1-21,28,27,25,25,24,22,91,89,86,30.48,30.38,3,1,7,0.00
2013-1-22,27,26,25,24,23,22,92,87,82,30.40,30.25,2,1,7,0.00
2013-1-23,29,28,26,26,25,23,91,89,85,30.24,30.00,4,1,11,0.00
2013-1-24,34,29,23,30,26,21,94,90,85,30.29,30.15,8,3,14,0.01
2013-1-25,35,34,30,33,32,28,96,93,90,30.20,29.97,6,1,7,0.04
2013-1-26,36,34,33,35,33,32,98,96,94,30.02,29.94,6,0,6,0.02
2013-1-27,43,35,32,37,33,31,97,91,79,30.06,29.95,8,1,9,0.00
2013-1-28,40,36,29,36,33,27,96,90,85,29.99,29.89,9,2,10,0.00
2013-1-29,47,41,36,40,36,33,92,83,66,30.21,29.91,10,1,10,0.00
2013-1-30,56,44,37,44,39,34,94,82,61,30.25,30.17,14,4,15,0.00
2013-1-31,56,45,38,46,41,35,100,86,65,30.29,30.20,10,2,11,0.00
2013-2-1,56,41,32,43,36,31,100,84,56,30.44,30.22,11,1,12,0.00
2013-2-2,49,37,29,40,33,28,100,87,70,30.46,30.26,11,2,11,0.00
2013-2-3,36,32,26,35,31,25,97,96,95,30.28,30.16,8,1,8,0.01
2013-2-4,50,39,31,42,36,30,99,91,70,30.17,29.93,8,1,8,0.01
2013-2-5,55,42,32,44,37,30,97,83,61,29.95,29.84,16,4,22,0.00
2013-2-6,55,46,39,39,36,34,85,70,48,30.07,29.87,20,5,23,0.00
2013-2-7,47,41,32,38,34,28,92,78,66,30.06,29.85,11,2,12,0.00
2013-2-8,45,35,28,37,31,26,95,85,67,30.18,30.06,10,1,12,0.00
2013-2-9,50,34,26,35,29,24,93,80,54,30.20,30.09,8,1,10,0.00
2013-2-10,50,35,24,35,28,22,100,80,53,30.30,30.20,7,1,11,0.01
2013-2-11,46,34,26,36,30,23,95,84,67,30.26,30.19,8,1,9,0.00
2013-2-12,55,43,29,43,37,26,95,81,54,30.33,30.21,13,3,14,0.00
2013-2-13,53,46,36,42,37,29,89,71,54,30.38,30.19,16,3,16,0.00
2013-2-14,56,41,31,40,34,27,93,77,48,30.52,30.38,9,1,9,0.00
2013-2-15,57,41,29,41,35,27,94,80,53,30.53,30.23,9,2,10,0.00
2013-2-16,58,40,28,44,34,26,96,79,46,30.24,29.97,17,2,18,0.01
2013-2-17,54,40,29,35,29,25,92,67,39,30.15,30.06,12,4,13,0.00
2013-2-18,46,36,28,33,29,24,86,76,56,30.10,29.77,8,1,10,0.00
2013-2-19,51,39,33,36,32,30,93,76,48,29.92,29.73,8,2,9,0.02
2013-2-20,51,38,26,37,30,24,100,76,49,30.02,29.92,14,1,14,0.00
2013-2-21,52,39,26,38,32,23,94,77,50,30.04,29.99,18,5,19,0.00
2013-2-22,48,43,34,42,36,29,90,78,63,30.02,29.67,29,8,31,0.08
2013-2-23,55,42,33,35,29,24,89,61,33,30.28,29.81,22,6,23,0.00
2013-2-24,48,37,28,34,30,24,91,75,55,30.34,30.03,14,4,17,0.00
2013-2-25,52,42,32,40,32,24,93,69,35,30.20,29.92,24,8,27,0.10
2013-2-26,52,39,28,34,29,25,91,71,42,30.34,30.20,13,3,14,0.00
2013-2-27,58,45,32,41,34,26,85,66,42,30.30,30.19,10,2,11,0.01
2013-2-28,52,47,44,50,45,40,97,91,82,30.33,30.22,11,2,11,0.13
2013-3-1,63,54,47,50,47,44,95,76,58,30.35,30.23,22,5,22,0.00
2013-3-2,57,51,44,49,44,35,95,80,59,30.24,29.94,16,3,21,0.00
2013-3-3,55,44,30,35,25,19,75,50,24,30.21,30.01,24,5,24,0.00
2013-3-4,55,37,22,31,25,18,88,64,28,30.30,30.01,13,1,13,0.00
2013-3-5,48,39,30,38,32,25,89,76,60,30.02,29.77,14,5,17,0.00
2013-3-6,39,38,37,38,36,35,95,93,88,29.78,29.59,8,2,9,0.04
2013-3-7,39,39,39,38,38,38,95,95,95,29.61,29.61,0,0,5,0.00
2013-3-8,56,41,30,40,32,27,92,73,44,30.14,30.02,7,2,13,0.00
2013-3-9,60,48,28,39,33,25,94,60,34,30.39,30.15,9,1,9,0.00
2013-3-10,55,44,31,42,35,26,90,72,48,30.40,30.25,10,2,12,0.00
2013-3-11,58,46,36,43,35,28,95,69,34,30.33,30.17,7,1,8,0.00
2013-3-12,65,55,46,48,44,38,90,69,50,30.17,30.02,20,5,20,0.00
2013-3-13,68,56,46,47,44,40,83,65,44,30.15,30.05,12,3,13,0.00
2013-3-14,66,56,47,50,45,32,88,68,36,30.06,29.94,11,2,14,0.00
2013-3-15,65,54,44,47,43,36,90,67,45,30.14,30.04,12,3,14,0.00
2013-3-16,60,48,39,45,39,30,91,71,46,30.04,29.75,25,6,25,0.02
2013-3-17,55,43,33,32,28,20,82,57,27,30.10,29.86,22,6,24,0.00
2013-3-18,58,43,30,34,28,19,89,59,23,30.20,30.02,26,6,26,0.00
2013-3-19,57,42,25,35,27,20,83,58,33,30.22,29.74,12,3,12,0.00
2013-3-20,44,44,44,36,36,35,73,72,70,29.75,29.73,5,2,5,0.00
2013-3-21,53,38,35,33,29,26,79,70,36,30.09,29.90,14,4,24,0.00
2013-3-22,52,39,29,29,26,20,84,61,29,30.29,30.08,17,2,19,0.00
2013-3-23,52,38,23,33,25,19,89,61,31,30.38,30.26,9,1,11,0.00
2013-3-24,56,41,24,32,24,19,88,57,26,30.33,30.15,13,1,15,0.00
2013-3-25,60,45,30,34,28,22,76,54,33,30.16,29.94,12,4,13,0.00
2013-3-26,64,54,40,39,34,30,70,49,32,30.00,29.90,9,1,11,0.00
2013-3-27,66,50,45,48,42,37,91,76,48,29.95,29.88,9,2,10,0.00
2013-3-28,50,48,45,43,42,41,86,82,78,29.98,29.94,7,1,8,0.00
2013-3-30,53,45,38,45,41,35,89,84,74,30.23,30.22,5,2,7,0.00
2013-3-31,76,64,39,46,42,34,85,48,25,30.04,29.85,11,4,13,0.00
2013-4-1,78,58,39,47,42,34,89,60,29,29.96,29.86,9,1,10,0.00
2013-4-2,73,58,44,50,45,42,94,66,37,30.06,29.94,13,3,17,0.00
2013-4-3,72,57,42,48,42,37,92,62,30,30.08,29.90,10,2,10,0.00
2013-4-4,61,54,46,54,46,40,92,75,62,29.91,29.67,17,2,17,0.08
2013-4-5,70,62,48,50,46,41,88,57,41,29.85,29.81,23,9,24,0.00
2013-4-6,62,54,46,46,41,37,91,63,40,29.89,29.80,24,9,27,0.02
2013-4-7,63,51,41,49,41,34,95,72,35,29.82,29.52,30,8,32,0.20
2013-4-8,58,46,36,42,38,34,100,75,45,30.19,29.75,8,1,9,0.09
2013-4-9,65,49,34,44,38,31,92,68,40,30.32,30.14,10,2,13,0.00
2013-4-10,70,55,46,49,40,34,75,58,35,30.15,29.84,31,7,32,0.00
2013-4-11,63,50,38,40,36,31,88,61,34,30.17,30.05,14,4,14,0.00
2013-4-12,61,47,33,45,37,29,92,72,37,30.10,29.63,21,3,24,0.20
2013-4-13,59,49,38,41,30,23,85,51,25,29.89,29.61,25,8,29,0.01
2013-4-14,58,45,34,36,32,26,89,64,31,29.93,29.82,17,3,19,0.00
2013-4-15,55,44,32,42,34,26,93,70,36,30.07,29.86,10,2,12,0.01
2013-4-16,56,44,32,28,23,18,76,46,25,30.33,30.07,16,5,18,0.00
2013-4-17,62,45,28,32,25,19,77,50,20,30.44,30.31,10,2,11,0.00
2013-4-18,68,54,36,48,38,25,84,56,35,30.34,30.15,13,2,14,0.00
2013-4-19,67,56,50,51,47,42,95,75,47,30.16,29.91,20,6,21,0.08
2013-4-20,69,56,42,44,40,36,88,58,31,30.12,30.02,19,5,23,0.00
2013-4-21,67,52,40,42,38,32,89,62,30,30.23,30.01,20,3,21,0.00
2013-4-22,62,48,34,36,28,16,88,51,17,30.45,30.23,15,2,21,0.00
2013-4-23,68,49,30,32,26,18,80,45,15,30.37,30.16,10,2,11,0.00
2013-4-24,72,53,33,40,32,26,84,51,20,30.29,29.92,13,1,13,0.00
2013-4-25,78,61,39,47,38,32,82,47,23,29.99,29.90,13,2,13,0.00
2013-4-26,85,65,45,50,43,34,84,49,19,30.12,29.99,12,2,12,0.00
2013-4-27,79,61,48,44,40,31,70,48,18,30.09,29.95,24,4,24,0.00
2013-4-28,73,60,44,45,40,33,83,50,26,30.09,29.86,20,4,20,0.00
2013-4-29,64,56,42,43,33,20,72,44,21,30.00,29.78,25,9,26,0.00
2013-4-30,61,48,35,34,29,22,81,52,24,30.26,29.99,19,2,19,0.00
2013-5-1,63,39,30,32,28,25,85,66,26,30.54,30.35,7,0,8,0.00
2013-5-2,73,47,34,40,31,24,82,57,17,30.53,30.19,6,0,7,0.00
2013-5-3,54,51,50,38,36,34,62,56,50,30.19,30.18,4,0,5,0.00
2013-5-5,70,68,66,54,52,51,62,57,52,29.72,29.71,3,1,3,0.00
2013-5-6,88,70,49,50,42,32,70,41,14,29.81,29.63,10,2,12,0.00
2013-5-7,90,70,47,52,43,36,73,43,16,29.77,29.67,8,1,9,0.00
2013-5-8,90,70,52,56,50,41,86,53,23,29.91,29.76,10,1,12,0.00
2013-5-9,68,57,53,56,49,45,85,74,58,30.01,29.90,4,0,5,0.00
2013-5-10,97,75,53,56,48,34,83,44,11,30.06,29.93,8,1,10,0.00
2013-5-11,71,68,65,50,47,45,56,48,41,30.00,29.99,4,1,7,0.00
2013-5-12,89,76,63,59,55,46,74,49,27,29.93,29.87,15,3,16,0.00
2013-5-13,70,62,50,58,51,40,89,69,45,30.09,29.91,24,5,24,0.11
2013-5-14,72,56,44,45,39,30,84,58,21,30.15,29.99,10,1,11,0.00
2013-5-15,67,50,42,44,38,33,83,65,38,30.03,29.96,6,0,10,0.00
2013-5-16,70,54,47,51,47,44,90,78,44,29.91,29.89,9,2,10,0.00
2013-5-17,58,53,51,46,45,43,80,74,63,29.81,29.80,5,0,6,0.00
2013-5-18,75,60,46,48,44,40,92,59,29,30.10,29.92,20,4,22,0.00
2013-5-19,76,63,52,51,45,40,81,54,30,30.23,30.09,11,2,12,0.00
2013-5-20,80,56,44,51,44,39,87,66,29,30.23,29.78,4,0,6,0.00
2013-5-21,62,54,46,53,45,42,86,74,64,29.77,29.65,18,6,19,0.13
2013-5-22,57,48,41,46,41,38,92,77,53,29.96,29.77,18,7,22,0.06
2013-5-23,70,55,39,45,40,32,93,61,26,30.00,29.90,11,2,18,0.00
2013-5-24,65,52,46,52,46,42,94,80,48,29.97,29.90,14,3,16,0.14
2013-5-25,47,44,42,43,40,40,91,88,84,29.97,29.94,5,0,5,0.00
2013-5-26,68,54,45,55,45,39,84,70,54,29.93,29.88,10,1,13,0.00
2013-5-27,70,56,47,51,47,44,90,73,44,29.90,29.79,11,2,12,0.00
2013-5-28,66,56,52,52,49,43,95,79,50,29.80,29.70,12,2,17,0.00
2013-5-29,67,54,49,56,48,42,92,81,61,29.76,29.62,13,1,13,0.20
2013-5-30,72,60,48,51,45,38,92,62,30,30.10,29.88,18,2,18,0.00
2013-5-31,76,62,45,48,44,39,92,56,27,30.24,30.10,14,1,24,0.00
2013-6-1,81,64,44,55,44,39,86,53,26,30.15,29.88,8,1,9,0.00
2013-6-2,74,60,49,51,47,43,85,65,34,29.90,29.86,11,2,14,0.00
2013-6-3,82,67,48,53,46,41,86,52,24,29.99,29.89,11,1,12,0.00
2013-6-4,84,69,51,56,50,45,85,54,31,30.06,29.93,13,2,17,0.00
2013-6-5,63,56,52,53,48,46,80,72,58,29.96,29.94,5,0,6,0.00
2013-6-6,69,64,60,54,52,51,77,66,55,29.87,29.84,4,0,5,0.00
2013-6-7,92,74,58,59,50,42,79,45,21,29.93,29.78,17,4,20,0.00
2013-6-8,89,72,52,53,47,40,78,45,18,30.00,29.81,12,2,13,0.00
2013-6-9,86,71,53,52,46,35,81,45,17,29.91,29.74,11,2,13,0.00
2013-6-10,83,67,47,48,43,33,81,46,18,29.84,29.66,8,1,9,0.00
2013-6-11,75,61,51,49,46,41,82,60,32,29.86,29.70,18,5,22,0.00
2013-6-12,76,60,44,48,43,37,92,57,24,30.05,29.94,12,2,16,0.00
2013-6-13,76,62,48,48,44,40,89,55,30,30.06,29.98,17,3,20,0.00
2013-6-14,71,56,47,50,45,40,89,69,41,30.13,29.94,12,2,16,0.00
2013-6-15,88,69,47,52,44,37,71,44,22,29.95,29.79,11,3,12,0.00
2013-6-16,92,75,58,62,51,41,66,45,21,29.91,29.77,12,3,14,0.00
2013-6-17,87,73,59,59,52,43,79,52,22,29.93,29.73,16,2,19,0.00
2013-6-18,65,62,58,58,56,54,89,80,72,29.88,29.80,8,1,10,0.02
2013-6-19,58,57,56,54,54,53,92,89,87,29.80,29.77,2,0,3,0.00
2013-6-20,61,57,55,54,51,46,93,79,58,30.03,29.85,11,2,11,0.17
2013-6-21,72,60,53,58,53,49,96,78,49,30.08,30.01,12,1,15,0.01
2013-6-22,82,66,46,55,50,44,94,61,30,30.05,29.82,11,1,11,0.00
2013-6-23,61,60,59,49,49,48,69,66,63,29.82,29.79,4,0,4,0.00
2013-6-24,66,61,57,61,58,54,96,91,69,29.65,29.56,9,1,11,0.07
2013-6-25,73,62,54,60,55,51,93,81,58,29.83,29.66,6,1,7,0.30
2013-6-26,74,66,58,63,58,55,92,77,52,30.01,29.82,10,1,11,0.00
2013-6-27,74,64,58,65,60,57,95,87,68,30.07,30.00,9,1,9,0.00
2013-6-28,68,64,61,59,58,58,89,83,71,30.10,30.09,7,1,8,0.00
2013-6-29,86,75,68,70,65,62,88,72,56,29.94,29.84,9,2,10,0.48
2013-6-30,70,69,68,66,65,65,90,88,85,29.91,29.91,2,0,2,0.00
2013-7-1,102,86,67,72,65,57,76,51,30,29.85,29.70,14,4,16,0.00
2013-7-2,106,92,71,72,67,61,80,48,23,29.88,29.72,10,2,10,0.00
2013-7-3,98,80,69,61,54,44,74,44,22,29.93,29.75,9,1,10,0.00
2013-7-4,94,76,58,58,50,43,80,43,20,29.86,29.70,13,2,14,0.00
2013-7-5,89,73,55,55,50,45,88,49,23,29.83,29.70,14,2,14,0.00
2013-7-6,88,64,54,56,52,49,88,67,28,29.84,29.76,8,1,8,0.00
2013-7-7,93,76,58,64,55,45,79,50,20,29.79,29.64,12,1,13,0.00
2013-7-8,72,65,60,60,55,53,84,72,52,29.85,29.71,7,0,11,0.00
2013-7-9,95,70,57,58,49,40,74,51,15,30.00,29.82,7,1,7,0.00
2013-7-10,99,78,60,60,53,45,72,46,19,29.84,29.65,12,2,12,0.00
2013-7-11,91,76,60,55,47,38,65,39,18,29.83,29.71,8,1,10,0.00
2013-7-12,64,54,49,47,44,41,80,68,47,29.87,29.78,4,0,5,0.00
2013-7-13,61,55,49,44,42,41,75,63,50,30.04,29.92,12,0,12,0.00
2013-7-14,94,73,50,55,46,33,79,44,13,30.03,29.78,9,1,9,0.00
2013-7-15,71,64,57,46,44,42,59,48,36,29.86,29.80,8,1,13,0.00
2013-7-16,100,76,57,60,50,41,69,42,15,29.87,29.64,14,3,17,0.00
2013-7-17,99,78,62,62,56,51,79,50,22,29.92,29.71,9,1,10,0.00
2013-7-18,94,78,58,66,54,45,66,45,25,30.04,29.87,7,1,7,0.00
2013-7-19,96,88,66,64,55,43,55,34,17,29.94,29.80,6,1,7,0.00
2013-7-20,103,77,57,59,50,40,70,43,13,29.86,29.66,8,1,8,0.00
2013-7-21,95,75,60,62,51,40,76,45,24,29.76,29.62,8,1,10,0.00
2013-7-22,100,89,69,65,56,47,49,33,19,29.79,29.67,10,2,10,0.00
2013-7-23,101,87,69,64,54,44,50,35,16,29.82,29.75,8,0,11,0.00
2013-7-24,99,68,58,56,48,42,72,51,17,29.87,29.77,9,0,9,0.00
2013-7-25,103,85,59,63,53,42,67,36,14,29.91,29.80,9,1,11,0.00
2013-7-26,100,81,56,59,48,39,68,36,13,29.95,29.80,9,1,10,0.00
2013-7-27,94,78,62,57,50,41,65,38,20,29.94,29.73,8,1,9,0.00
2013-7-28,90,73,54,56,50,42,78,47,21,29.82,29.69,10,1,10,0.00
2013-7-29,90,70,55,58,52,48,84,57,24,29.84,29.74,7,1,9,0.00
2013-7-30,91,82,76,52,48,42,42,31,22,29.92,29.90,3,0,4,0.00
2013-7-31,84,71,60,61,51,44,63,50,34,29.96,29.81,11,1,11,0.00
2013-8-1,83,70,57,62,57,48,80,63,39,29.85,29.78,12,2,16,0.00
2013-8-2,75,66,58,62,58,54,93,76,53,29.99,29.85,8,1,9,0.11
2013-8-3,87,70,60,66,61,58,96,75,39,30.05,29.91,8,1,10,0.04
2013-8-4,90,73,58,67,59,53,91,64,37,29.97,29.80,8,1,9,0.00
2013-8-5,93,74,59,64,58,54,86,60,30,29.89,29.76,8,1,9,0.00
2013-8-6,100,78,60,62,55,45,80,50,16,29.87,29.72,7,0,8,0.00
2013-8-7,99,78,56,57,49,37,75,42,12,29.84,29.72,7,1,9,0.00
2013-8-8,94,77,59,62,54,48,82,49,21,29.85,29.72,6,1,8,0.00
2013-8-9,94,75,60,65,56,47,71,52,31,29.81,29.64,20,1,23,0.00
2013-8-10,84,70,61,63,59,55,82,68,46,29.85,29.74,10,1,12,0.00
2013-8-15,93,81,71,62,59,55,68,49,29,29.84,29.73,6,1,8,0.00
2013-8-16,90,76,61,65,60,56,85,60,32,29.90,29.82,8,1,9,0.03
2013-8-17,93,77,64,65,60,53,87,60,30,29.92,29.81,12,2,13,0.00
2013-8-18,94,79,59,61,56,52,83,47,26,30.00,29.84,10,2,11,0.00
2013-8-19,95,77,58,63,54,50,78,49,24,29.96,29.82,8,1,9,0.00
2013-8-20,88,73,55,56,51,39,82,50,24,30.00,29.87,9,1,9,0.00
2013-8-21,89,70,51,56,48,40,73,48,28,29.99,29.82,11,2,12,0.00
2013-8-22,89,76,60,60,52,43,62,44,27,29.85,29.70,8,1,9,0.00
2013-8-23,90,76,66,62,56,51,77,53,32,29.75,29.65,13,2,16,0.00
2013-8-24,88,73,58,61,56,50,82,57,29,29.78,29.65,8,1,9,0.00
2013-8-25,85,69,61,62,57,51,96,69,33,29.83,29.66,24,1,30,0.23
2013-8-26,85,70,57,63,59,56,95,72,40,29.89,29.80,8,1,10,0.01
2013-8-27,87,72,56,61,57,53,92,63,39,29.90,29.67,9,1,11,0.00
2013-8-28,92,75,59,62,56,53,87,57,28,29.79,29.66,8,1,9,0.00
2013-8-29,69,68,66,56,55,54,68,63,61,29.76,29.75,9,3,9,0.00
2013-8-31,90,78,54,60,54,48,82,45,30,29.99,29.75,12,4,13,0.00
2013-9-1,96,74,58,66,54,47,71,51,28,29.78,29.63,9,1,10,0.00
2013-9-2,87,70,61,61,56,51,83,63,36,29.78,29.65,12,2,13,0.00
2013-9-3,90,77,69,63,59,56,71,55,36,29.82,29.77,3,0,5,0.00
2013-9-4,94,77,61,66,59,53,87,57,28,29.90,29.77,8,1,8,0.00
2013-9-5,88,74,63,66,62,59,93,71,44,29.90,29.69,37,2,48,0.28
2013-9-6,72,65,58,60,56,52,89,75,60,30.04,29.84,16,3,19,0.00
2013-9-7,77,64,52,62,56,50,96,77,50,30.06,29.95,11,1,12,0.00
2013-9-8,85,67,54,61,57,52,94,72,38,30.03,29.89,8,1,10,0.00
2013-9-9,92,71,55,61,55,51,87,61,28,29.93,29.81,8,0,8,0.00
2013-9-10,90,70,58,63,56,52,83,63,36,29.93,29.80,11,2,13,0.00
2013-9-11,93,76,60,66,58,53,78,56,34,29.95,29.81,11,2,12,0.00
2013-9-12,94,75,59,64,58,53,79,58,32,29.89,29.74,8,1,10,0.00
2013-9-13,97,76,60,65,60,55,87,60,27,29.77,29.61,7,1,8,0.00
2013-9-14,89,76,60,67,60,53,86,60,39,29.76,29.62,8,1,9,0.00
2013-9-15,93,76,62,67,58,50,73,56,34,29.65,29.44,8,1,9,0.00
2013-9-16,81,71,58,59,55,52,92,60,40,29.82,29.74,14,4,16,0.00
2013-9-17,69,60,53,59,53,45,94,80,55,29.78,29.68,12,2,15,0.00
2013-9-18,77,62,52,50,46,43,78,60,30,30.00,29.78,13,2,14,0.00
2013-9-19,52,47,44,44,42,40,87,84,77,30.03,30.00,3,0,3,0.00
2013-9-20,71,61,60,49,49,48,68,65,44,29.55,29.47,2,0,4,0.00
2013-9-21,76,65,56,55,51,46,80,63,37,29.65,29.55,14,3,14,0.00
2013-9-22,70,59,53,55,49,46,88,72,43,29.69,29.60,19,4,19,0.11
2013-9-23,65,58,54,50,49,48,80,70,59,29.89,29.86,7,1,9,0.01
2013-9-24,65,57,47,52,48,43,93,75,50,29.88,29.73,13,1,14,0.00
2013-9-25,69,54,43,50,44,38,94,72,33,29.85,29.74,12,1,13,0.00
2013-9-26,52,51,50,48,46,45,91,82,78,29.94,29.85,9,1,9,0.02
2013-9-27,61,50,44,50,46,41,94,85,59,30.02,29.92,15,2,15,0.06
2013-9-28,67,58,54,55,54,53,95,86,62,29.75,29.48,8,4,14,0.12
2013-9-29,63,58,52,51,48,44,79,70,61,29.64,29.34,16,5,20,0.08
2013-9-30,64,57,51,51,43,39,73,60,49,29.79,29.37,27,10,30,0.00
2013-10-1,62,52,43,46,43,39,89,72,50,30.12,29.93,17,3,17,0.00
2013-10-2,60,49,39,45,42,37,93,77,52,30.13,29.99,8,1,9,0.00
2013-10-3,68,52,39,47,42,36,93,72,41,30.36,30.05,8,1,12,0.00
2013-10-4,69,48,34,45,38,31,98,75,37,30.50,30.36,5,0,5,0.00
2013-10-5,76,52,36,47,39,32,92,66,31,30.39,30.18,6,0,7,0.00
2013-10-6,75,50,36,46,38,32,89,68,29,30.18,29.90,10,2,10,0.00
2013-10-7,71,56,44,50,42,39,85,62,33,29.93,29.83,23,5,25,0.00
2013-10-8,65,50,41,46,43,39,93,78,49,29.97,29.83,17,3,18,0.37
2013-10-9,60,47,35,49,42,34,95,84,60,30.09,29.89,9,1,10,0.01
2013-10-10,68,57,44,47,43,38,90,61,38,29.95,29.85,13,1,15,0.00
2013-10-11,65,48,41,46,41,36,90,78,45,30.10,29.95,5,0,5,0.00
2013-10-12,58,51,47,50,46,43,92,83,69,30.12,29.97,8,0,10,0.00
2013-10-13,65,51,39,46,40,34,94,69,35,30.27,30.12,8,1,8,0.00
2013-10-14,68,47,32,41,36,29,91,69,33,30.39,30.27,7,0,8,0.00
2013-10-15,66,44,30,42,35,28,94,74,37,30.40,30.13,5,0,6,0.00
2013-10-16,66,50,37,44,38,32,85,65,36,30.17,30.10,8,1,8,0.00
2013-10-18,66,47,40,42,38,35,83,72,41,30.16,30.15,3,0,3,0.00
2013-10-19,66,45,33,45,37,30,93,75,43,30.15,30.06,5,0,5,0.00
2013-10-20,70,43,35,49,38,33,94,81,47,30.15,30.05,3,0,4,0.00
2013-10-21,71,53,38,50,42,35,92,69,43,30.18,30.08,7,1,8,0.00
2013-10-22,70,53,39,50,43,36,92,71,47,30.17,30.03,8,1,9,0.00
2013-10-23,70,50,37,52,43,34,94,78,51,30.12,30.01,10,1,10,0.00
2013-10-24,67,48,36,50,42,34,95,80,51,30.11,30.02,7,1,7,0.00
2013-10-25,67,50,35,50,43,33,96,79,51,30.23,30.08,6,0,7,0.00
2013-10-26,64,48,36,49,41,34,95,79,52,30.28,30.05,7,0,8,0.01
2013-10-27,52,46,37,49,44,35,96,93,76,30.04,29.72,10,1,11,0.03
2013-10-28,48,48,48,37,37,37,65,65,64,29.81,29.81,20,13,22,0.00
2013-11-1,67,60,52,49,44,38,85,57,42,30.23,29.89,9,2,10,0.00
2013-11-2,60,50,41,50,40,34,94,70,41,29.93,29.60,30,7,32,0.13
2013-11-3,57,44,37,37,34,28,92,68,34,30.02,29.83,18,3,18,0.00
2013-11-4,53,38,28,34,28,24,92,71,34,30.18,30.02,6,0,7,0.00
2013-11-5,46,41,36,40,37,28,90,84,71,30.22,30.10,7,1,7,0.05
2013-11-6,50,42,36,40,38,34,93,84,68,30.37,30.22,7,1,10,0.01
2013-11-7,50,43,41,46,41,39,95,93,72,30.20,29.79,14,2,20,0.08
2013-11-8,56,48,41,43,40,38,89,77,54,30.12,29.93,11,2,15,0.00
2013-11-9,48,43,37,42,39,34,94,85,76,30.17,30.09,12,2,13,0.00
2013-11-10,54,45,40,44,41,38,93,86,69,30.23,30.10,6,0,7,0.00
2013-11-11,52,42,36,45,39,34,95,90,76,30.34,30.22,7,1,7,0.00
2013-11-12,54,46,38,46,42,36,96,89,73,30.35,30.21,8,1,9,0.00
2013-11-13,60,44,32,47,39,31,97,85,58,30.40,30.23,7,1,9,0.01
2013-11-14,51,39,33,44,36,31,100,90,69,30.24,29.95,4,0,6,0.01
2013-11-15,49,42,33,41,36,31,96,81,65,29.96,29.34,20,6,22,0.03
2013-11-16,56,46,38,39,33,27,85,63,34,29.71,29.26,19,6,24,0.00
2013-11-17,59,49,41,41,38,35,84,68,49,29.90,29.70,23,7,23,0.00
2013-11-18,56,51,48,45,40,37,85,67,56,29.89,29.61,20,4,20,0.02
2013-11-19,59,53,42,48,41,31,76,65,52,29.81,29.58,21,6,24,0.00
2013-11-20,42,32,17,30,13,7,76,47,24,30.48,29.90,12,3,15,0.00
2013-11-21,41,23,12,17,13,7,83,65,36,30.75,30.48,12,2,12,0.00
2013-11-22,40,24,13,24,17,9,92,74,50,30.83,30.68,10,1,11,0.00
2013-11-23,39,24,14,25,18,11,92,77,55,30.68,30.42,6,1,7,0.00
2013-11-24,40,25,15,26,19,12,89,79,55,30.44,30.35,4,0,5,0.00
2013-11-25,43,30,20,28,22,17,88,75,53,30.51,30.42,4,0,5,0.00
2013-11-26,40,27,18,29,22,15,98,81,62,30.43,30.26,5,0,5,0.00
2013-11-27,40,28,0,31,24,0,98,83,70,30.26,30.15,10,1,10,0.00
2013-11-28,43,29,0,32,24,0,93,75,61,30.26,30.19,4,0,5,0.00
2013-11-29,30,27,0,29,25,0,94,92,89,30.36,30.28,6,0,8,0.00
2013-11-30,40,32,30,33,30,28,95,89,75,30.37,30.19,3,0,4,0.00
2013-12-1,58,50,32,52,44,29,96,81,66,30.19,29.65,23,5,27,0.16
2013-12-2,55,42,32,44,29,18,83,62,35,29.98,29.63,21,5,25,0.00
2013-12-3,34,28,19,28,18,10,81,65,45,30.29,29.98,18,5,20,0.00
2013-12-4,33,19,10,16,11,5,89,70,43,30.40,30.28,10,1,10,0.00
2013-12-5,27,14,0,16,8,0,92,76,57,30.40,30.33,7,1,8,0.00
2013-12-6,28,17,0,16,6,-6,92,66,40,30.34,30.18,22,6,26,0.00
2013-12-7,24,14,6,1,-3,-6,74,48,30,30.47,30.21,21,6,25,0.00
2013-12-8,23,12,4,6,1,-2,83,62,41,30.63,30.46,8,2,8,0.00
2013-12-9,27,16,6,11,6,0,80,68,47,30.61,30.43,8,1,8,0.00
2013-12-10,32,20,14,13,10,7,75,64,45,30.51,30.42,10,2,10,0.00
2013-12-11,35,20,9,20,13,5,87,73,53,30.51,30.37,7,1,8,0.00
2013-12-12,32,25,15,25,18,11,92,75,63,30.37,30.17,3,0,4,0.00
2013-12-13,42,28,20,30,23,17,92,82,59,30.45,30.21,5,0,5,0.00
2013-12-14,38,32,24,34,28,21,93,86,75,30.47,30.30,12,0,14,0.00
2013-12-15,57,37,26,42,33,23,95,84,58,30.32,30.21,9,2,10,0.00
2013-12-16,55,40,31,42,35,28,96,83,58,30.41,30.32,8,1,10,0.01
2013-12-17,41,31,0,36,28,0,100,88,81,30.29,30.00,10,1,10,0.00
2013-12-18,45,37,31,41,34,26,100,88,80,30.03,29.89,8,1,10,0.00
2013-12-19,39,31,25,20,15,12,64,52,34,30.30,30.07,12,2,13,0.00
2013-12-20,38,31,26,34,27,17,100,84,65,30.04,29.63,12,3,15,0.05
2013-12-21,36,31,26,31,28,24,93,88,79,30.15,29.81,7,0,7,0.03
2013-12-22,35,30,27,32,28,25,94,91,86,30.32,30.14,9,1,9,0.01
2013-12-23,59,42,33,49,36,31,100,84,65,30.42,30.03,20,3,24,0.01
2013-12-24,50,36,25,37,30,22,92,80,55,30.55,30.42,11,2,11,0.00
2013-12-25,37,30,23,31,26,20,92,86,75,30.55,30.45,10,1,11,0.00
2013-12-26,37,26,0,33,24,0,100,87,84,30.46,30.34,4,0,5,0.01
2013-12-27,30,26,20,29,24,18,96,94,93,30.34,30.14,11,1,13,0.00
2013-12-28,29,27,22,28,26,21,96,95,94,30.54,30.30,5,0,7,0.00
2013-12-29,31,28,25,30,27,24,96,96,95,30.53,30.29,5,0,6,0.00
2013-12-30,32,30,28,31,29,27,97,96,96,30.34,30.14,6,0,8,0.00
2013-12-31,43,33,0,41,32,0,98,95,87,30.36,30.13,8,1,9,0.01
2014-1-1,32,30,25,31,28,23,97,96,94,30.47,30.35,10,2,11,0.00
2014-1-2,38,32,30,37,32,30,98,98,97,30.38,29.82,9,1,11,0.01